Catoma Lake Weather Center

Moon Phase Calendar



Catoma Lake Water Level
Online Cameras

 


      

Current Conditions in Cullman
2/8/2023 6:10:53 PM

66°F
Feels Like 66
Clouds
Humidity
79%
Pressure
30.12"
Wind
6.9 mph (S)
Dew Point
60°F
UV Index
0/10 (Low)
Visibility
6 mi

Hourly Forecast

Date & Time Wed, Feb 8
6:00 PM
Wed, Feb 8
7:00 PM
Wed, Feb 8
8:00 PM
Wed, Feb 8
9:00 PM
Wed, Feb 8
10:00 PM
Wed, Feb 8
11:00 PM
Thu, Feb 9
12:00 AM
Thu, Feb 9
1:00 AM
Thu, Feb 9
2:00 AM
Thu, Feb 9
3:00 AM
Thu, Feb 9
4:00 AM
Thu, Feb 9
5:00 AM
Thu, Feb 9
6:00 AM
Thu, Feb 9
7:00 AM
Thu, Feb 9
8:00 AM
Thu, Feb 9
9:00 AM
Thu, Feb 9
10:00 AM
Thu, Feb 9
11:00 AM
Thu, Feb 9
12:00 PM
Thu, Feb 9
1:00 PM
Thu, Feb 9
2:00 PM
Thu, Feb 9
3:00 PM
Thu, Feb 9
4:00 PM
Thu, Feb 9
5:00 PM
Thu, Feb 9
6:00 PM
Thu, Feb 9
7:00 PM
Thu, Feb 9
8:00 PM
Thu, Feb 9
9:00 PM
Thu, Feb 9
10:00 PM
Thu, Feb 9
11:00 PM
Fri, Feb 10
12:00 AM
Fri, Feb 10
1:00 AM
Fri, Feb 10
2:00 AM
Fri, Feb 10
3:00 AM
Fri, Feb 10
4:00 AM
Fri, Feb 10
5:00 AM
Fri, Feb 10
6:00 AM
Fri, Feb 10
7:00 AM
Fri, Feb 10
8:00 AM
Fri, Feb 10
9:00 AM
Fri, Feb 10
10:00 AM
Fri, Feb 10
11:00 AM
Fri, Feb 10
12:00 PM
Fri, Feb 10
1:00 PM
Fri, Feb 10
2:00 PM
Fri, Feb 10
3:00 PM
Fri, Feb 10
4:00 PM
Fri, Feb 10
5:00 PM
Condition
Clouds

Clouds

Clouds

Clouds

Clouds

Clouds

Clouds

Rain

Clouds

Clouds

Rain

Rain

Rain

Rain

Rain

Rain

Rain

Clouds

Clouds

Clouds

Clouds

Clouds

Clouds

Clouds

Clouds

Clear

Clear

Clear

Clear

Clouds

Clouds

Clouds

Clouds

Clouds

Clouds

Clouds

Clouds

Clouds

Clouds

Clouds

Clouds

Clouds

Clouds

Clouds

Clouds

Clouds

Clouds

Clouds
Temperature 66°F65°F64°F64°F63°F62°F62°F61°F61°F61°F60°F61°F60°F61°F58°F53°F52°F52°F58°F60°F62°F62°F61°F56°F53°F51°F50°F49°F48°F47°F47°F46°F46°F46°F45°F45°F46°F46°F48°F51°F54°F57°F59°F60°F60°F59°F58°F55°F
Feels Like 66°F65°F64°F64°F63°F63°F62°F61°F60°F60°F60°F61°F61°F61°F57°F52°F51°F51°F57°F59°F60°F60°F59°F55°F51°F49°F48°F48°F47°F46°F47°F46°F46°F45°F43°F42°F44°F44°F47°F49°F53°F56°F57°F58°F58°F57°F56°F53°F
Cloudiness 20%35%50%66%82%98%98%100%100%100%100%100%100%100%100%100%100%100%88%62%38%50%44%35%29%0%0%1%2%16%18%64%55%70%77%82%85%100%100%100%100%100%100%100%96%98%98%99%
Visibility 6 mi6 mi6 mi6 mi6 mi6 mi6 mi6 mi6 mi6 mi4 mi6 mi6 mi6 mi6 mi6 mi6 mi6 mi6 mi6 mi6 mi6 mi6 mi6 mi6 mi6 mi6 mi6 mi6 mi6 mi6 mi6 mi6 mi6 mi6 mi6 mi6 mi6 mi6 mi6 mi6 mi6 mi6 mi6 mi6 mi6 mi6 mi6 mi
Precipitation 10%60%70%77%79%73%72%46%44%53%84%96%100%96%93%89%89%88%84%9%8%4%4%4%4%0%0%0%0%0%0%0%0%0%0%0%0%0%0%0%0%0%0%0%0%0%0%0%
Humidity 79%82%85%87%90%89%85%84%82%82%93%90%94%94%89%78%82%84%67%59%53%51%57%67%73%78%81%83%84%85%87%88%89%88%90%91%89%88%83%76%68%60%53%50%49%50%58%65%
Dew Point 60°F60°F60°F60°F60°F59°F57°F56°F55°F55°F58°F58°F59°F59°F54°F47°F47°F48°F47°F46°F45°F44°F46°F46°F44°F44°F44°F44°F43°F43°F43°F43°F42°F42°F42°F42°F42°F43°F43°F44°F44°F44°F42°F41°F41°F41°F44°F43°F
Pressure 30.12"30.12"30.12"30.09"30.06"30.06"30.06"30.03"30"29.97"29.97"29.97"29.97"30"30.03"30.06"30.09"30.12"30.09"30.06"30.03"30.03"30.06"30.06"30.09"30.12"30.12"30.12"30.12"30.12"30.12"30.12"30.09"30.09"30.06"30.09"30.09"30.09"30.09"30.06"30.06"30.06"30.03"30"29.97"29.97"29.97"29.97"
Wind Speed 9 mph10.4 mph11.4 mph13.4 mph14.1 mph15.5 mph16.6 mph16.6 mph18.5 mph21.5 mph20.1 mph21.5 mph20.5 mph15.6 mph12.5 mph11.2 mph8.7 mph9.6 mph10.8 mph10.3 mph9.1 mph8.1 mph5.9 mph4.3 mph4.6 mph4.5 mph4 mph3.8 mph3.8 mph3.4 mph2.9 mph2.6 mph3 mph3.1 mph4.5 mph4.2 mph3.6 mph4 mph3.9 mph4 mph3.4 mph2.5 mph2.6 mph4.9 mph5.5 mph5.7 mph4.5 mph4.4 mph
Wind
Direction
142°
SE
147°
SSE
156°
SSE
164°
SSE
173°
S
174°
S
175°
S
173°
S
175°
S
178°
S
184°
S
180°
S
178°
S
208°
SSW
246°
WSW
241°
WSW
232°
SW
226°
SW
238°
WSW
237°
WSW
249°
WSW
257°
WSW
259°
W
279°
W
303°
WNW
333°
NNW
350°
N
14°
NNE
10°
N
26°
NNE
38°
NE
27°
NNE
22°
NNE
359°
N
358°
N
359°
N
11°
N

N
26°
NNE
47°
NE
48°
NE
358°
N
307°
NW
313°
NW
325°
NW
328°
NNW
345°
NNW
15°
NNE

Daily Forecast

Date High Low Precip. Humidity
Today
Feb 8

Rain
66 °F
54 °F
79%
90%
Thursday
Feb 9

Rain
62 °F
47 °F
100%
67%
Friday
Feb 10

Clouds
60 °F
45 °F
8%
53%
Saturday
Feb 11

Rain
49 °F
39 °F
69%
66%
Sunday
Feb 12

Clear
51 °F
31 °F
11%
43%
Monday
Feb 13

Clouds
58 °F
37 °F
0%
40%
Tuesday
Feb 14

Rain
57 °F
45 °F
100%
58%
Wednesday
Feb 15

Rain
62 °F
50 °F
100%
64%
Thursday
Feb 16

Rain
65 °F
49 °F
100%
67%
Friday
Feb 17

Rain
51 °F
33 °F
100%
46%
Saturday
Feb 18

Snow
36 °F
32 °F
63%
35%
Sunday
Feb 19

Clear
48 °F
27 °F
19%
49%
Monday
Feb 20

Clouds
54 °F
34 °F
0%
68%
Tuesday
Feb 21

Rain
60 °F
44 °F
99%
87%
Wednesday
Feb 22

Rain
62 °F
37 °F
100%
59%
Thursday
Feb 23

Rain
55 °F
31 °F
53%
37%

Temperature 8-14 Day Outlook



Precipitation 8-14 Day Outlook




Quick Links
Catoma Lake News
Catoma Lake Photos
Catoma Lake Videos




About Us
Contact Us
Site Map
Search Site
Advertise With Us
   
Catoma.LakesOnline.com
THE CATOMA LAKE WEBSITE

Copyright 2023, Lakes Online
Privacy    |    Legal